When you browse on this site, cookies collect data to enhance your experience and personalize the content and advertising you see.
Visit our Privacy Policy to learn more. By continuing to use the site, you agree to this use of cookies and data.
  • In Latvia
  • List of Countries
  • For 7 days
  • Water Temperature
  • Weather Map
  • Weather Widgets
  • user-avatar
    Login

    Hourly Weather Mayrhofen

    Today, 11 December, Wednesday

    Time Temperature Precipitation Wind Pressure Humidity
    00:00 -8°C° 0 mm 1 mps 615 mmHg 36%
    01:00 -7°C° 0 mm 1 mps 616 mmHg 27%
    02:00 -6°C° 0 mm 1 mps 615 mmHg 26%
    03:00 -6°C° 0 mm 1 mps 615 mmHg 26%
    04:00 -6°C° 0 mm 1 mps 614 mmHg 25%
    05:00 -4°C° 0 mm 1 mps 614 mmHg 25%
    06:00 -4°C° 0 mm 1 mps 614 mmHg 25%
    07:00 -4°C° 0 mm 1 mps 614 mmHg 25%
    08:00 -2°C° 0 mm 1 mps 614 mmHg 30%
    09:00 -1°C° 0 mm 1 mps 614 mmHg 35%
    10:00 +1°C° 0 mm 1 mps 614 mmHg 40%
    11:00 +2°C° 0 mm 1 mps 614 mmHg 45%
    12:00 +2°C° 0 mm 1 mps 613 mmHg 51%
    13:00 +3°C° 0 mm 1 mps 613 mmHg 55%
    14:00 +1°C° 0 mm 1 mps 612 mmHg 54%
    15:00 0°C° 0 mm 1 mps 611 mmHg 52%
    16:00 -2°C° 0 mm 1 mps 609 mmHg 50%
    17:00 -2°C° 0 mm 1 mps 609 mmHg 48%
    18:00 -3°C° 0 mm 1 mps 609 mmHg 46%
    19:00 -4°C° 0 mm 1 mps 608 mmHg 43%
    20:00 -4°C° 0 mm 1 mps 608 mmHg 43%
    21:00 -4°C° 0 mm 1 mps 608 mmHg 44%
    22:00 -6°C° 0 mm 1 mps 608 mmHg 44%
    23:00 -6°C° 0 mm 1 mps 607 mmHg 47%

    Tomorrow, 12 December, Thursday

    Time Temperature Precipitation Wind Pressure Humidity
    00:00 -6°C° 0 mm 1 mps 607 mmHg 51%
    01:00 -7°C° 0 mm 1 mps 607 mmHg 54%
    02:00 -7°C° 0 mm 1 mps 606 mmHg 59%
    03:00 -7°C° 0 mm 1 mps 606 mmHg 64%
    04:00 -7°C° 0 mm 1 mps 605 mmHg 69%
    05:00 -7°C° 0.2 mm 1 mps 605 mmHg 76%
    06:00 -7°C° 0.2 mm 1 mps 606 mmHg 83%
    07:00 -7°C° 0.2 mm 1 mps 606 mmHg 91%
    08:00 -6°C° 0.2 mm 1 mps 606 mmHg 90%
    09:00 -6°C° 0.2 mm 1 mps 606 mmHg 90%
    10:00 -6°C° 0.2 mm 1 mps 606 mmHg 90%
    11:00 -4°C° 0.1 mm 1 mps 606 mmHg 89%
    12:00 -4°C° 0.1 mm 1 mps 606 mmHg 87%
    13:00 -3°C° 0.1 mm 1 mps 606 mmHg 86%
    14:00 -4°C° 0.1 mm 1 mps 606 mmHg 88%
    15:00 -4°C° 0.1 mm 1 mps 605 mmHg 91%
    16:00 -6°C° 0.1 mm 1 mps 604 mmHg 93%
    17:00 -7°C° 0 mm 1 mps 604 mmHg 93%
    18:00 -8°C° 0 mm 1 mps 604 mmHg 93%
    19:00 -8°C° 0 mm 1 mps 603 mmHg 92%
    20:00 -9°C° 0 mm 1 mps 603 mmHg 90%
    21:00 -10°C° 0 mm 2 mps 602 mmHg 87%
    22:00 -12°C° 0 mm 2 mps 601 mmHg 85%
    23:00 -10°C° 0 mm 2 mps 601 mmHg 85%

    Day after tomorrow, 13 December, Friday

    Time Temperature Precipitation Wind Pressure Humidity
    00:00 -12°C° 0 mm 3 mps 600 mmHg 85%
    01:00 -12°C° 0 mm 3 mps 600 mmHg 86%
    02:00 -12°C° 0 mm 3 mps 599 mmHg 86%
    03:00 -12°C° 0 mm 3 mps 598 mmHg 86%
    04:00 -11°C° 0 mm 4 mps 598 mmHg 86%
    05:00 -12°C° 0 mm 4 mps 597 mmHg 86%
    06:00 -12°C° 0 mm 4 mps 596 mmHg 85%
    07:00 -12°C° 0 mm 4 mps 596 mmHg 85%
    08:00 -11°C° 0.1 mm 4 mps 596 mmHg 84%
    09:00 -10°C° 0.1 mm 4 mps 596 mmHg 83%
    10:00 -10°C° 0.1 mm 4 mps 596 mmHg 82%
    11:00 -9°C° 0.5 mm 3 mps 596 mmHg 84%
    12:00 -7°C° 0.5 mm 2 mps 596 mmHg 86%
    13:00 -7°C° 0.5 mm 2 mps 596 mmHg 88%
    14:00 -6°C° 0.6 mm 1 mps 596 mmHg 89%
    15:00 -6°C° 0.6 mm 1 mps 596 mmHg 91%
    16:00 -6°C° 0.6 mm 1 mps 596 mmHg 93%
    17:00 -6°C° 0.1 mm 1 mps 596 mmHg 91%
    18:00 -7°C° 0.1 mm 1 mps 597 mmHg 89%
    19:00 -8°C° 0.1 mm 2 mps 597 mmHg 87%
    20:00 -8°C° 0 mm 2 mps 598 mmHg 85%
    21:00 -8°C° 0 mm 2 mps 598 mmHg 84%
    22:00 -8°C° 0 mm 2 mps 599 mmHg 82%
    23:00 -9°C° 0 mm 2 mps 599 mmHg 84%

    14 December, Saturday

    Time Temperature Precipitation Wind Pressure Humidity
    00:00 -9°C° 0 mm 2 mps 600 mmHg 86%
    01:00 -10°C° 0 mm 2 mps 600 mmHg 89%
    02:00 -10°C° 0 mm 2 mps 601 mmHg 87%
    03:00 -12°C° 0 mm 2 mps 601 mmHg 85%
    04:00 -10°C° 0 mm 1 mps 601 mmHg 83%
    05:00 -12°C° 0 mm 2 mps 602 mmHg 78%
    06:00 -10°C° 0 mm 2 mps 603 mmHg 72%
    07:00 -10°C° 0 mm 2 mps 603 mmHg 66%
    08:00 -8°C° 0.1 mm 2 mps 604 mmHg 67%
    09:00 -6°C° 0.1 mm 2 mps 605 mmHg 68%
    10:00 -4°C° 0.1 mm 2 mps 606 mmHg 69%
    11:00 -1°C° 0 mm 1 mps 607 mmHg 69%
    12:00 0°C° 0 mm 1 mps 607 mmHg 69%
    13:00 +1°C° 0 mm 1 mps 608 mmHg 70%
    14:00 0°C° 0 mm 1 mps 608 mmHg 72%
    15:00 -1°C° 0 mm 1 mps 608 mmHg 74%
    16:00 -1°C° 0 mm 1 mps 608 mmHg 76%
    17:00 -2°C° 0 mm 1 mps 608 mmHg 75%
    18:00 -4°C° 0 mm 2 mps 608 mmHg 74%
    19:00 -4°C° 0 mm 2 mps 609 mmHg 72%
    20:00 -4°C° 0 mm 2 mps 609 mmHg 71%
    21:00 -5°C° 0 mm 2 mps 609 mmHg 70%
    22:00 -6°C° 0 mm 3 mps 609 mmHg 69%
    23:00 -6°C° 0 mm 3 mps 609 mmHg 69%

    15 December, Sunday

    Time Temperature Precipitation Wind Pressure Humidity
    00:00 -5°C° 0 mm 2 mps 609 mmHg 69%
    01:00 -5°C° 0 mm 2 mps 609 mmHg 69%
    02:00 -5°C° 0 mm 2 mps 609 mmHg 69%
    03:00 -6°C° 0 mm 3 mps 609 mmHg 69%
    04:00 -6°C° 0 mm 3 mps 609 mmHg 68%
    05:00 -7°C° 0 mm 3 mps 610 mmHg 69%
    06:00 -7°C° 0 mm 3 mps 610 mmHg 70%
    07:00 -7°C° 0 mm 3 mps 610 mmHg 70%
    08:00 -6°C° 0 mm 3 mps 610 mmHg 71%
    09:00 -4°C° 0 mm 2 mps 611 mmHg 71%
    10:00 -3°C° 0 mm 2 mps 612 mmHg 71%
    11:00 -2°C° 0 mm 2 mps 612 mmHg 73%
    12:00 -1°C° 0 mm 2 mps 613 mmHg 75%
    13:00 +1°C° 0 mm 2 mps 613 mmHg 77%
    14:00 -1°C° 0 mm 2 mps 613 mmHg 78%
    15:00 0°C° 0 mm 1 mps 613 mmHg 79%
    16:00 -1°C° 0 mm 1 mps 612 mmHg 79%
    17:00 -2°C° 0 mm 1 mps 613 mmHg 78%
    18:00 -3°C° 0 mm 1 mps 613 mmHg 76%
    19:00 -3°C° 0 mm 1 mps 613 mmHg 74%
    20:00 -3°C° 0 mm 1 mps 614 mmHg 74%
    21:00 -4°C° 0 mm 1 mps 614 mmHg 74%
    22:00 -6°C° 0 mm 2 mps 614 mmHg 74%
    23:00 -6°C° 0 mm 2 mps 614 mmHg 76%

    16 December, Monday

    Time Temperature Precipitation Wind Pressure Humidity
    00:00 -6°C° 0 mm 2 mps 614 mmHg 78%
    01:00 -6°C° 0 mm 2 mps 614 mmHg 80%
    02:00 -7°C° 0 mm 2 mps 614 mmHg 82%
    03:00 -8°C° 0 mm 3 mps 614 mmHg 84%
    04:00 -8°C° 0 mm 3 mps 614 mmHg 86%
    05:00 -7°C° 0 mm 3 mps 614 mmHg 86%
    06:00 -7°C° 0 mm 3 mps 614 mmHg 87%
    07:00 -6°C° 0 mm 3 mps 614 mmHg 88%
    08:00 -7°C° 0 mm 4 mps 614 mmHg 88%
    09:00 -5°C° 0 mm 4 mps 615 mmHg 87%
    10:00 -4°C° 0 mm 4 mps 615 mmHg 86%
    11:00 -4°C° 0 mm 4 mps 615 mmHg 86%
    12:00 -3°C° 0 mm 4 mps 615 mmHg 87%
    13:00 -2°C° 0 mm 4 mps 615 mmHg 87%
    14:00 -3°C° 0 mm 4 mps 615 mmHg 88%
    15:00 -3°C° 0 mm 4 mps 614 mmHg 89%
    16:00 -3°C° 0 mm 4 mps 614 mmHg 90%
    17:00 -3°C° 0 mm 4 mps 614 mmHg 90%
    18:00 -4°C° 0 mm 4 mps 614 mmHg 90%
    19:00 -4°C° 0 mm 4 mps 614 mmHg 90%
    20:00 -3°C° 0 mm 4 mps 614 mmHg 90%
    21:00 -3°C° 0 mm 4 mps 615 mmHg 90%
    22:00 -3°C° 0 mm 4 mps 615 mmHg 90%
    23:00 -3°C° 0 mm 4 mps 614 mmHg 90%
    Show more